This demonstration page uses our WeatherBlox Daily Observations layout. Learn more.

38.89511, -77.03637

Hourly Observations for September 9, 2019

Temp ( °F °C ) Dew Point ( °F °C ) Humidity (%) Winds ( mph kmh ) Pressure ( in mb ) Visibility ( mi km ) Precip ( " mm )
12:52 am 00:52 Cloudy 74 23.3 63 17.2 69 69 ENE 5 7 30.09 1019 10 16.09344 0 0
1:52 am 01:52 Cloudy 74 23.3 63 17.2 69 69 ENE 5 7 30.12 1020 10 16.09344 0 0
2:52 am 02:52 Cloudy 72 22.2 63 17.2 73 73 N 3 6 30.09 1019 10 16.09344 0 0
3:52 am 03:52 Mostly Cloudy 71 21.7 62 16.7 73 73 N 5 7 30.12 1020 10 16.09344 0 0
4:52 am 04:52 Mostly Cloudy 71 21.7 63 17.2 76 76 NNW 6 9 30.12 1020 10 16.09344 0 0
5:52 am 05:52 Cloudy 72 22.2 63 17.2 73 73 NNW 3 6 30.15 1021 10 16.09344 0 0
6:52 am 06:52 Cloudy 72 22.2 60 15.6 66 66 ENE 7 11 30.15 1021 10 16.09344 0 0
7:52 am 07:52 Cloudy with Light Rain 72 22.2 60 15.6 66 66 NE 6 9 30.18 1022 10 16.09344 0.001 0.001
8:52 am 08:52 Cloudy 72 22.2 63 17.2 73 73 NE 6 9 30.18 1022 10 16.09344 0.001 0.001
9:52 am 09:52 Cloudy 75 23.9 65 18.3 71 71 NNE 5 7 30.21 1023 10 16.09344 0 0
10:52 am 10:52 Cloudy 78 25.6 65 18.3 64 64 NNE 5 7 30.21 1023 10 16.09344 0 0
11:52 am 11:52 Mostly Cloudy 80 26.7 65 18.3 60 60 Calm 30.18 1022 10 16.09344 0 0
12:52 pm 12:52 Mostly Cloudy 82 27.8 61 16.1 49 49 ESE 3 6 30.18 1022 10 16.09344 0 0
1:52 pm 13:52 Mostly Cloudy 83 28.3 62 16.7 49 49 S 6 9 30.18 1022 10 16.09344 0 0
2:52 pm 14:52 Mostly Cloudy 84 28.9 61 16.1 46 46 SSW 7 11 30.18 1022 10 16.09344 0 0
3:52 pm 15:52 Mostly Cloudy 84 28.9 57 13.9 40 40 Calm 30.18 1022 10 16.09344 0 0
4:52 pm 16:52 Cloudy 84 28.9 58 14.4 41 41 SSE 3 6 30.15 1021 10 16.09344 0 0
5:52 pm 17:52 Cloudy 83 28.3 61 16.1 48 48 E 6 9 30.18 1022 10 16.09344 0 0
6:52 pm 18:52 Mostly Cloudy 81 27.2 60 15.6 49 49 ESE 8 13 30.18 1022 10 16.09344 0 0
7:52 pm 19:52 Mostly Cloudy 79 26.1 55 12.8 44 44 E 6 9 30.18 1022 10 16.09344 0 0
8:52 pm 20:52 Mostly Cloudy 78 25.6 52 11.1 40 40 Calm 30.21 1023 10 16.09344 0 0
9:52 pm 21:52 Mostly Cloudy 77 25 55 12.8 47 47 Calm 30.24 1024 10 16.09344 0 0
10:52 pm 22:52 Mostly Cloudy 76 24.4 60 15.6 58 58 ENE 5 7 30.24 1024 10 16.09344 0 0
11:52 pm 23:52 Mostly Cloudy 73 22.8 64 17.8 74 74 S 3 6 30.24 1024 10 16.09344 0 0

Powered by AerisWeather